FW0150 Weather Reports


time (UTC)temp
C
wind
direction
speed
KPH
gust
KPH
rain 1hr
cm
rain 24hr
cm
rain mn
cm
humidity
%
barometer
mb
20260503021826 10 186 8.0 9.7 0.00 0.00 0.00 79 1021.7
20260503020748 10 196 6.4 9.7 0.00 0.00 0.00 78 1021.7
20260503020244 10 168 6.4 9.7 0.00 0.00 0.00 78 1021.7
20260503015825 10 159 6.4 11.3 0.00 0.00 0.00 77 1021.7
20260503014725 10 121 8.0 11.3 0.00 0.00 0.00 78 1021.8
20260503014209 10 188 8.0 14.5 0.00 0.00 0.00 78 1021.8
20260503013711 10 141 8.0 14.5 0.00 0.00 0.00 78 1021.8
20260503013217 10 124 9.7 11.3 0.00 0.00 0.00 78 1021.8
20260503012715 10 155 9.7 11.3 0.00 0.00 0.00 78 1021.9
20260503012226 10 195 8.0 11.3 0.00 0.00 0.00 77 1021.9
20260503011156 10 189 9.7 14.5 0.00 0.00 0.00 77 1022.1
20260503010655 10 185 9.7 11.3 0.00 0.00 0.00 76 1022.0
20260503010134 10 152 8.0 16.1 0.00 0.00 0.00 75 1022.0
20260503005647 10 168 9.7 19.3 0.00 0.00 0.00 75 1022.0
20260503004636 11 168 11.3 17.7 0.00 0.00 0.00 74 1022.0
20260503004211 11 135 11.3 17.7 0.00 0.00 0.00 75 1022.1
20260503002610 11 192 9.7 16.1 0.00 0.00 0.00 73 1022.3
20260503002112 11 162 9.7 16.1 0.00 0.00 0.00 74 1022.2
20260503001551 11 162 11.3 17.7 0.00 0.00 0.00 74 1022.2
20260503001048 11 183 11.3 17.7 0.00 0.00 0.00 73 1022.3
20260503000601 11 145 12.9 16.1 0.00 0.00 0.00 73 1022.3
20260503000041 11 186 11.3 16.1 0.00 0.00 0.00 73 1022.4
20260502235557 11 165 9.7 14.5 0.00 0.00 0.00 73 1022.3
20260502235037 11 197 11.3 16.1 0.00 0.00 0.00 72 1022.4
20260502234028 11 175 11.3 16.1 0.00 0.00 0.00 72 1022.4
20260502233523 11 195 11.3 16.1 0.00 0.00 0.00 72 1022.5
20260502233001 11 213 12.9 17.7 0.00 0.00 0.00 71 1022.5
20260502232456 11 202 11.3 17.7 0.00 0.00 0.00 71 1022.6
20260502231953 11 206 14.5 17.7 0.00 0.00 0.00 70 1022.6
20260502231448 11 197 11.3 17.7 0.00 0.00 0.00 70 1022.5
20260502230953 11 173 11.3 19.3 0.00 0.00 0.00 69 1022.6
20260502225945 11 196 14.5 17.7 0.00 0.00 0.00 68 1022.6
20260502225449 11 196 14.5 17.7 0.00 0.00 0.00 67 1022.7
20260502224943 11 216 11.3 16.1 0.00 0.00 0.00 67 1022.6
20260502224450 11 216 12.9 16.1 0.00 0.00 0.00 67 1022.7
20260502223944 11 216 9.7 16.1 0.00 0.00 0.00 67 1022.7
20260502223446 12 226 9.7 16.1 0.00 0.00 0.00 66 1022.6
20260502222958 12 231 9.7 16.1 0.00 0.00 0.00 66 1022.6
20260502222446 12 226 11.3 16.1 0.00 0.00 0.00 65 1022.6
20260502221951 12 227 11.3 16.1 0.00 0.00 0.00 64 1022.5
20260502220954 12 226 11.3 14.5 0.00 0.00 0.00 61 1022.7
20260502220443 13 251 6.4 8.0 0.00 0.00 0.00 56 1022.7
20260502215944 14 234 3.2 4.8 0.00 0.00 0.00 55 1022.7
20260502215437 14 147 3.2 3.2 0.00 0.00 0.00 55 1022.6
20260502214942 15 200 1.6 3.2 0.00 0.00 0.00 53 1022.6
20260502214435 15 234 0.0 4.8 0.00 0.00 0.00 52 1022.6
20260502213936 15 24 1.6 4.8 0.00 0.00 0.00 51 1022.6
20260502213435 16 23 4.8 4.8 0.00 0.00 0.00 50 1022.6
20260502212940 16 23 3.2 3.2 0.00 0.00 0.00 50 1022.6
20260502212435 16 21 1.6 3.2 0.00 0.00 0.00 51 1022.6
20260502211936 15 21 3.2 3.2 0.00 0.00 0.00 51 1022.6
20260502211434 15 344 1.6 4.8 0.00 0.00 0.00 52 1022.6
20260502210934 15 344 1.6 4.8 0.00 0.00 0.00 52 1022.6
20260502205934 15 321 0.0 1.6 0.00 0.00 0.00 50 1022.7
20260502205434 16 321 0.0 1.6 0.00 0.00 0.00 49 1022.7
20260502204434 16 321 0.0 0.0 0.00 0.00 0.00 49 1022.6
20260502203935 16 321 0.0 0.0 0.00 0.00 0.00 49 1022.6
20260502203435 16 323 0.0 0.0 0.00 0.00 0.00 48 1022.5
20260502202936 16 321 0.0 0.0 0.00 0.00 0.00 48 1022.5
20260502202435 16 27 0.0 1.6 0.00 0.00 0.00 48 1022.5
20260502201935 16 28 0.0 1.6 0.00 0.00 0.00 48 1022.5
20260502201439 16 73 0.0 1.6 0.00 0.00 0.00 49 1022.5
20260502200435 16 75 0.0 3.2 0.00 0.00 0.00 47 1022.5
20260502195936 17 73 1.6 6.4 0.00 0.00 0.00 47 1022.4
20260502195435 17 85 3.2 8.0 0.00 0.00 0.00 46 1022.3
20260502194933 17 79 4.8 8.0 0.00 0.00 0.00 46 1022.4
20260502194434 17 59 4.8 6.4 0.00 0.00 0.00 46 1022.3
20260502193435 17 68 4.8 6.4 0.00 0.00 0.00 46 1022.1
20260502192936 17 73 3.2 4.8 0.00 0.00 0.00 46 1022.1
20260502192434 17 66 3.2 6.4 0.00 0.00 0.00 47 1022.1
20260502190934 17 61 1.6 3.2 0.00 0.00 0.00 46 1022.0
20260502190431 17 61 0.0 4.8 0.00 0.00 0.00 46 1021.9
20260502185924 17 55 1.6 4.8 0.00 0.00 0.00 45 1021.9
20260502185423 17 56 3.2 4.8 0.00 0.00 0.00 44 1021.9
20260502183913 18 92 0.0 1.6 0.00 0.00 0.00 45 1021.7
20260502183409 18 102 1.6 3.2 0.00 0.00 0.00 44 1021.7
20260502182907 18 65 3.2 4.8 0.00 0.00 0.00 44 1021.6
20260502181842 18 68 3.2 6.4 0.00 0.00 0.00 44 1021.6
20260502180846 18 42 8.0 11.3 0.00 0.00 0.00 41 1021.5
20260502180338 19 30 9.7 14.5 0.00 0.00 0.00 41 1021.4
20260502170309 20 44 12.9 17.7 0.00 0.00 0.00 39 1021.5
20260502163808 20 25 12.9 19.3 0.00 0.00 0.00 39 1021.5
20260502163307 20 48 11.3 16.1 0.00 0.00 0.00 39 1021.5
20260502162308 20 24 11.3 19.3 0.00 0.00 0.00 39 1021.5
20260502161806 20 28 14.5 19.3 0.00 0.00 0.00 38 1021.6
20260502161308 20 34 11.3 22.5 0.00 0.00 0.00 39 1021.6
20260502160309 20 34 14.5 24.1 0.00 0.00 0.00 39 1021.6
20260502152246 20 31 9.7 24.1 0.00 0.00 0.00 38 1022.1
20260502151746 20 10 16.1 24.1 0.00 0.00 0.00 38 1022.1
20260502151245 20 321 6.4 20.9 0.00 0.00 0.00 37 1022.1
20260502150745 20 44 12.9 20.9 0.00 0.00 0.00 38 1022.1
20260502150248 20 42 16.1 20.9 0.00 0.00 0.00 38 1022.2
20260502130711 20 47 22.5 30.6 0.00 0.00 0.00 35 1023.4
20260502130206 20 54 20.9 37.0 0.00 0.00 0.00 35 1023.4
20260502123710 19 49 16.1 30.6 0.00 0.00 0.00 36 1023.6
20260502123207 20 28 12.9 29.0 0.00 0.00 0.00 38 1023.7
20260502122707 20 58 14.5 29.0 0.00 0.00 0.00 35 1023.9
20260502121705 20 79 12.9 29.0 0.00 0.00 0.00 39 1024.0
20260502121148 19 32 14.5 27.4 0.00 0.00 0.00 37 1023.9
20260502120647 19 47 17.7 30.6 0.00 0.00 0.00 40 1023.9
20260502115648 19 35 17.7 29.0 0.00 0.00 0.00 38 1024.1
20260502115145 19 45 12.9 24.1 0.00 0.00 0.00 37 1024.2
20260502114136 19 23 6.4 19.3 0.00 0.00 0.00 41 1024.1
20260502113640 19 344 11.3 22.5 0.00 0.00 0.00 42 1024.2
20260502113134 19 59 12.9 22.5 0.00 0.00 0.00 40 1024.3
20260502111637 18 31 14.5 20.9 0.00 0.00 0.00 41 1024.3
20260502111130 18 52 14.5 20.9 0.00 0.00 0.00 41 1024.4
20260502110632 18 345 6.4 20.9 0.00 0.00 0.00 41 1024.4
20260502110131 18 41 14.5 17.7 0.00 0.00 0.00 41 1024.6
20260502104628 17 52 16.1 24.1 0.00 0.00 0.00 40 1024.9
20260502104129 17 31 9.7 22.5 0.00 0.00 0.00 39 1024.9
20260502103633 17 72 16.1 22.5 0.00 0.00 0.00 41 1025.1
20260502102632 18 34 9.7 19.3 0.00 0.00 0.00 43 1025.2
20260502102129 17 55 9.7 24.1 0.00 0.00 0.00 39 1025.2
20260502101631 17 27 16.1 24.1 0.00 0.00 0.00 42 1025.2
20260502100629 17 44 14.5 24.1 0.00 0.00 0.00 42 1025.3
20260502091111 16 82 17.7 25.7 0.00 0.00 0.00 45 1025.6
20260502090611 16 31 17.7 25.7 0.00 0.00 0.00 44 1025.7
20260502071025 12 24 12.9 16.1 0.00 0.00 0.00 55 1026.0
20260502070032 12 21 9.7 16.1 0.00 0.00 0.00 58 1025.9
20260502065524 11 14 8.0 11.3 0.00 0.00 0.00 59 1025.9
20260502065038 11 340 8.0 11.3 0.00 0.00 0.00 60 1025.9
20260502064531 11 353 6.4 14.5 0.00 0.00 0.00 58 1025.9
20260502064022 11 321 8.0 14.5 0.00 0.00 0.00 58 1025.9
20260502063522 11 6 8.0 14.5 0.00 0.00 0.00 60 1025.9
20260502063027 10 10 9.7 14.5 0.00 0.00 0.00 58 1025.9
20260502062457 10 7 8.0 14.5 0.00 0.00 0.00 60 1026.0
20260502061440 10 347 8.0 11.3 0.00 0.00 0.00 61 1026.0
20260502060934 10 3 8.0 11.3 0.00 0.00 0.00 60 1026.0
20260502060435 10 8 6.4 11.3 0.00 0.00 0.00 60 1026.0
20260502055925 9 340 9.7 11.3 0.00 0.00 0.00 60 1026.0
20260502055422 9 351 9.7 11.3 0.00 0.00 0.00 60 1026.0
20260502054923 9 351 8.0 11.3 0.00 0.00 0.00 57 1026.0
20260502054424 9 336 6.4 11.3 0.00 0.00 0.00 59 1026.0
20260502052923 10 8 9.7 11.3 0.00 0.00 0.00 55 1025.9
20260502052409 10 350 9.7 11.3 0.00 0.00 0.00 56 1026.0
20260502051408 9 11 8.0 11.3 0.00 0.00 0.00 58 1025.9
20260502050346 8 20 8.0 9.7 0.00 0.00 0.00 58 1025.9
20260502045842 8 14 6.4 9.7 0.00 0.00 0.00 58 1026.0
20260502045346 9 1 9.7 9.7 0.00 0.00 0.00 58 1026.0
20260502044843 9 1 6.4 11.3 0.00 0.00 0.00 58 1025.9
20260502044339 9 355 9.7 11.3 0.00 0.00 0.00 57 1026.0
20260502043837 9 0 8.0 11.3 0.00 0.00 0.00 58 1025.9
20260502043332 9 354 9.7 11.3 0.00 0.00 0.00 58 1026.0
20260502042825 8 351 6.4 9.7 0.00 0.00 0.00 60 1026.0
20260502042325 8 3 8.0 8.0 0.00 0.00 0.00 60 1025.9
20260502041821 8 350 3.2 6.4 0.00 0.00 0.00 61 1026.0
20260502040824 8 341 3.2 6.4 0.00 0.00 0.00 61 1025.9
20260502035823 8 0 3.2 9.7 0.00 0.00 0.00 59 1025.9
20260502035325 8 348 4.8 9.7 0.00 0.00 0.00 59 1025.9
20260502034825 8 345 3.2 8.0 0.00 0.00 0.00 59 1025.9
20260502034306 8 327 4.8 8.0 0.00 0.00 0.00 59 1025.8
20260502033805 8 321 3.2 6.4 0.00 0.00 0.00 60 1025.8
20260502033303 8 8 1.6 4.8 0.00 0.00 0.00 60 1025.8
20260502032805 8 321 1.6 4.8 0.00 0.00 0.00 60 1025.7
20260502032305 8 331 1.6 4.8 0.00 0.00 0.00 60 1025.7
20260502031756 8 314 1.6 3.2 0.00 0.00 0.00 60 1025.7
20260502031251 8 340 1.6 3.2 0.00 0.00 0.00 60 1025.7
20260502030757 8 326 1.6 4.8 0.00 0.00 0.00 60 1025.8
20260502030253 8 312 1.6 4.8 0.00 0.00 0.00 60 1025.8
20260502025750 8 333 3.2 4.8 0.00 0.00 0.00 60 1025.8
20260502025249 8 326 3.2 4.8 0.00 0.00 0.00 59 1025.8
20260502024752 8 329 3.2 4.8 0.00 0.00 0.00 59 1025.8
20260502024248 8 341 1.6 4.8 0.00 0.00 0.00 58 1025.9
20260502023745 8 313 1.6 4.8 0.00 0.00 0.00 58 1025.8
20260502023247 8 331 1.6 6.4 0.00 0.00 0.00 58 1025.8
20260502022747 8 314 3.2 6.4 0.00 0.00 0.00 59 1025.8